sat.trackr.live / text

‹ back to catalog

STARLINK-3151

NORAD 49408 · 2021-104A

PAYLOAD ACTIVE UNKNOWN

§ Identity

Operator
Country
US
Launch date
2021-11-13
Launch site
AFETR
Launch vehicle
Mass (kg)
RCS (m²)

Purposes: comms

External: N2YO · Heavens-Above · Gunter

§ Orbital elements

Epoch: 2026-05-25T06:00:02.000160Z

Period
90.86 min
Inclination
53.2141°
Eccentricity
0.0001875
Mean motion
15.84815222 rev/d
Perigee alt
315.6 km
Apogee alt
318.1 km
Semi-major
6,695.0 km
B*
1.5198e-3
RAAN
215.9735°
Arg perigee
66.0986°
Mean anomaly
295.3474°
Rev number
592

§ Raw data

STARLINK-31511 49408U 21104A   26145.25002315  .00376263  00000+0  15198-2 0  99912 49408  53.2141 215.9735 0001875  66.0986 295.3474 15.84815222  5929

JSON: /api/v1/satellites/49408 · /tle

For live sub-satellite position, see the globe view (requires WebGL).

§ Visibility from observer

Set your observer location to see the next 7 days of passes ≥ 10°. The values pass through the URL so the page stays shareable.

No JS? Fill the form by hand. The geolocation button needs JavaScript.